FW0450 Weather Reports


time (UTC)temp
C
wind
direction
speed
KPH
gust
KPH
rain 1hr
cm
rain 24hr
cm
rain mn
cm
humidity
%
barometer
mb
20181023111506 22 116 12.9 20.9 0.00 0.00 0.00 59 1032.5
20181023111006 22 126 12.9 20.9 0.00 0.00 0.00 59 1032.5
20181023110506 22 123 14.5 20.9 0.00 0.00 0.00 59 1032.5
20181023110007 22 118 17.7 29.0 0.00 0.00 0.00 59 1032.5
20181023105505 22 125 17.7 29.0 0.00 0.00 0.00 59 1032.5
20181023105006 22 133 17.7 24.1 0.00 0.00 0.00 60 1032.5
20181023104506 22 138 16.1 20.9 0.00 0.00 0.00 60 1032.5
20181023104006 22 137 14.5 24.1 0.00 0.00 0.00 61 1032.5
20181023103506 22 134 12.9 24.1 0.00 0.00 0.00 62 1032.5
20181023103006 22 130 14.5 20.9 0.00 0.00 0.00 62 1033.5
20181023102508 22 129 16.1 20.9 0.00 0.00 0.00 62 1033.5
20181023102005 21 133 16.1 20.9 0.00 0.00 0.00 62 1033.5
20181023101505 21 128 14.5 20.9 0.00 0.00 0.00 62 1033.5
20181023101006 21 121 12.9 20.9 0.00 0.00 0.00 63 1033.5
20181023100506 21 115 14.5 20.9 0.00 0.00 0.00 63 1033.5
20181023100006 21 120 16.1 20.9 0.00 0.00 0.00 63 1033.5
20181023095506 21 120 14.5 24.1 0.00 0.00 0.00 63 1033.5
20181023095006 21 107 14.5 24.1 0.00 0.00 0.00 63 1033.5
20181023094506 21 121 12.9 19.3 0.00 0.00 0.00 64 1033.5
20181023094006 21 126 12.9 20.9 0.00 0.00 0.00 64 1033.5
20181023093506 21 115 14.5 20.9 0.00 0.00 0.00 64 1033.5
20181023093006 20 113 12.9 17.7 0.00 0.00 0.00 64 1033.5
20181023092506 20 115 12.9 20.9 0.00 0.00 0.00 64 1033.5
20181023092006 20 122 14.5 20.9 0.00 0.00 0.00 64 1033.5
20181023091006 20 123 12.9 20.9 0.00 0.00 0.00 65 1033.5
20181023090506 20 119 11.3 20.9 0.00 0.00 0.00 66 1033.5
20181023090006 20 121 9.7 14.5 0.00 0.00 0.00 66 1033.5
20181023085506 20 127 11.3 16.1 0.00 0.00 0.00 66 1033.5
20181023085007 20 115 11.3 16.1 0.00 0.00 0.00 66 1033.5
20181023084506 20 100 9.7 14.5 0.00 0.00 0.00 66 1033.5
20181023084007 19 98 11.3 14.5 0.00 0.00 0.00 66 1033.5
20181023083507 19 103 9.7 16.1 0.00 0.00 0.00 66 1033.5
20181023083006 19 109 9.7 16.1 0.00 0.00 0.00 67 1032.5
20181023082506 19 104 9.7 16.1 0.00 0.00 0.00 67 1032.5
20181023082006 18 97 11.3 20.9 0.00 0.00 0.00 67 1032.5
20181023081506 18 96 11.3 20.9 0.00 0.00 0.00 67 1032.5
20181023081006 18 104 11.3 16.1 0.00 0.00 0.00 67 1032.5
20181023080506 18 99 11.3 16.1 0.00 0.00 0.00 67 1032.5
20181023080006 18 91 12.9 16.1 0.00 0.00 0.00 67 1030.4
20181023075506 18 92 12.9 16.1 0.00 0.00 0.00 67 1030.4
20181023075005 18 99 12.9 16.1 0.00 0.00 0.00 67 1030.4
20181023074506 18 103 12.9 17.7 0.00 0.00 0.00 67 1030.4
20181023074006 18 103 16.1 22.5 0.00 0.00 0.00 67 1030.4
20181023073507 18 103 16.1 22.5 0.00 0.00 0.00 67 1030.4
20181023073006 17 103 12.9 19.3 0.00 0.00 0.00 67 1030.4
20181023072506 17 97 11.3 16.1 0.00 0.00 0.00 67 1030.4
20181023072006 17 92 9.7 12.9 0.00 0.00 0.00 67 1030.4
20181023071507 17 101 9.7 16.1 0.00 0.00 0.00 67 1027.4
20181023071007 17 115 9.7 16.1 0.00 0.00 0.00 67 1027.4
20181023070506 17 118 6.4 9.7 0.00 0.00 0.00 67 1029.4
20181023070008 17 108 8.0 9.7 0.00 0.00 0.00 67 1029.4
20181023065506 17 120 8.0 14.5 0.00 0.00 0.00 67 1029.4
20181023065007 17 122 8.0 14.5 0.00 0.00 0.00 67 1029.4
20181023064506 17 116 8.0 9.7 0.00 0.00 0.00 67 1030.4
20181023064006 17 115 9.7 12.9 0.00 0.00 0.00 67 1030.4
20181023063506 17 116 9.7 12.9 0.00 0.00 0.00 68 1030.4
20181023063006 17 115 9.7 14.5 0.00 0.00 0.00 68 1030.4
20181023062506 17 104 9.7 14.5 0.00 0.00 0.00 68 1030.4
20181023062006 17 90 8.0 9.7 0.00 0.00 0.00 68 1030.4
20181023061506 17 92 8.0 9.7 0.00 0.00 0.00 68 1029.4
20181023061007 17 97 8.0 9.7 0.00 0.00 0.00 68 1029.4
20181023060506 17 102 8.0 9.7 0.00 0.00 0.00 68 1029.4
20181023060006 17 106 8.0 9.7 0.00 0.00 0.00 68 1029.4
20181023055506 17 119 8.0 9.7 0.00 0.00 0.00 68 1029.4
20181023055007 17 119 8.0 11.3 0.00 0.00 0.00 69 1029.4
20181023054506 18 114 8.0 11.3 0.00 0.00 0.00 69 1029.4
20181023054007 18 110 6.4 9.7 0.00 0.00 0.00 69 1029.4
20181023053506 18 110 6.4 9.7 0.00 0.00 0.00 69 1029.4
20181023053006 18 114 8.0 9.7 0.00 0.00 0.00 69 1029.4
20181023052506 18 118 8.0 9.7 0.00 0.00 0.00 69 1029.4
20181023052007 18 123 8.0 11.3 0.00 0.00 0.00 69 1029.4
20181023051506 18 110 8.0 11.3 0.00 0.00 0.00 69 1029.4
20181023051007 18 106 6.4 8.0 0.00 0.00 0.00 70 1029.4
20181023050506 18 103 6.4 9.7 0.00 0.00 0.00 70 1029.4
20181023050007 18 110 6.4 9.7 0.00 0.00 0.00 70 1029.4
20181023045506 18 119 8.0 9.7 0.00 0.00 0.00 70 1029.4
20181023045007 18 130 6.4 9.7 0.00 0.00 0.00 70 1029.4
20181023044506 18 129 6.4 9.7 0.00 0.00 0.00 70 1029.4
20181023044007 18 119 8.0 9.7 0.00 0.00 0.00 71 1029.4
20181023043506 18 121 8.0 9.7 0.00 0.00 0.00 71 1029.4
20181023043006 18 113 8.0 9.7 0.00 0.00 0.00 71 1029.4
20181023042506 18 110 8.0 9.7 0.00 0.00 0.00 71 1029.4
20181023042006 18 115 8.0 9.7 0.00 0.00 0.00 71 1029.4
20181023041507 18 105 8.0 9.7 0.00 0.00 0.00 71 1029.4
20181023041006 18 96 8.0 9.7 0.00 0.00 0.00 71 1029.4
20181023040506 17 102 8.0 9.7 0.00 0.00 0.00 72 1029.4
20181023040007 18 110 8.0 11.3 0.00 0.00 0.00 72 1029.4
20181023035506 18 99 8.0 11.3 0.00 0.00 0.00 72 1029.4
20181023035006 18 94 8.0 9.7 0.00 0.00 0.00 72 1029.4
20181023034506 18 95 8.0 9.7 0.00 0.00 0.00 72 1029.4
20181023034006 18 95 9.7 12.9 0.00 0.00 0.00 72 1029.4
20181023033507 18 93 9.7 12.9 0.00 0.00 0.00 72 1029.4
20181023033006 18 98 8.0 9.7 0.00 0.00 0.00 72 1029.4
20181023032507 18 118 9.7 11.3 0.00 0.00 0.00 73 1029.4
20181023032006 18 119 9.7 11.3 0.00 0.00 0.00 73 1029.4
20181023031507 18 117 8.0 11.3 0.00 0.00 0.00 73 1029.4
20181023031007 18 130 8.0 9.7 0.00 0.00 0.00 73 1029.4
20181023030506 18 125 9.7 14.5 0.00 0.00 0.00 74 1029.4
20181023030007 18 126 9.7 14.5 0.00 0.00 0.00 74 1029.4
20181023025507 18 129 9.7 14.5 0.00 0.00 0.00 74 1029.4
20181023025006 18 120 9.7 14.5 0.00 0.00 0.00 74 1029.4
20181023024506 18 123 9.7 12.9 0.00 0.00 0.00 74 1029.4
20181023024007 18 133 9.7 12.9 0.00 0.00 0.00 75 1029.4
20181023023506 17 133 9.7 12.9 0.00 0.00 0.00 75 1029.4
20181023023007 17 129 9.7 12.9 0.00 0.00 0.00 75 1029.4
20181023022506 17 122 9.7 11.3 0.00 0.00 0.00 76 1029.4
20181023022007 17 128 9.7 12.9 0.00 0.00 0.00 76 1029.4
20181023021506 17 130 9.7 12.9 0.00 0.00 0.00 76 1029.4
20181023021007 17 123 9.7 9.7 0.00 0.00 0.00 77 1029.4
20181023020506 17 120 9.7 9.7 0.00 0.00 0.00 77 1029.4
20181023020007 17 122 9.7 11.3 0.00 0.00 0.00 77 1030.4
20181023015507 17 124 8.0 11.3 0.00 0.00 0.00 78 1030.4
20181023015007 17 125 9.7 11.3 0.00 0.00 0.00 78 1030.4
20181023014506 17 123 9.7 11.3 0.00 0.00 0.00 79 1030.4
20181023014007 17 127 8.0 11.3 0.00 0.00 0.00 79 1030.4
20181023013507 17 132 6.4 9.7 0.00 0.00 0.00 79 1030.4
20181023013006 17 134 6.4 8.0 0.00 0.00 0.00 79 1029.4
20181023012507 17 132 6.4 8.0 0.00 0.00 0.00 79 1029.4
20181023012006 17 127 6.4 8.0 0.00 0.00 0.00 79 1029.4
20181023011507 17 131 6.4 8.0 0.00 0.00 0.00 79 1026.4
20181023011006 17 135 6.4 8.0 0.00 0.00 0.00 79 1026.4
20181023010508 17 123 4.8 6.4 0.00 0.00 0.00 79 1029.4
20181023010007 17 118 4.8 6.4 0.00 0.00 0.00 79 1029.4
20181023005507 17 127 6.4 8.0 0.00 0.00 0.00 79 1029.4
20181023005007 17 124 8.0 9.7 0.00 0.00 0.00 79 1029.4
20181023004506 17 110 8.0 9.7 0.00 0.00 0.00 79 1029.4
20181023004006 17 96 8.0 9.7 0.00 0.00 0.00 79 1029.4
20181023003507 17 90 6.4 6.4 0.00 0.00 0.00 79 1029.4
20181023003007 17 88 6.4 6.4 0.00 0.00 0.00 79 1029.4
20181023002507 17 85 4.8 6.4 0.00 0.00 0.00 79 1029.4
20181023002007 17 86 4.8 6.4 0.00 0.00 0.00 79 1029.4
20181023001507 17 89 3.2 4.8 0.00 0.00 0.00 79 1026.4
20181023001006 17 99 4.8 6.4 0.00 0.00 0.00 79 1026.4
20181023000507 17 96 6.4 9.7 0.00 0.00 0.00 79 1029.4
20181023000007 17 89 6.4 9.7 0.00 0.00 0.00 79 1029.4
20181022235507 17 89 6.4 6.4 0.00 0.00 0.00 79 1029.4
20181022235006 17 92 6.4 6.4 0.00 0.00 0.00 79 1029.4
20181022234507 17 95 6.4 6.4 0.00 0.00 0.00 79 1029.4
20181022234006 17 96 6.4 8.0 0.00 0.00 0.00 79 1029.4
20181022233507 17 102 6.4 8.0 0.00 0.00 0.00 78 1029.4
20181022233007 17 101 6.4 6.4 0.00 0.00 0.00 78 1029.4
20181022232506 17 90 4.8 6.4 0.00 0.00 0.00 78 1029.4
20181022232007 17 90 4.8 6.4 0.00 0.00 0.00 78 1029.4
20181022231508 17 90 4.8 4.8 0.00 0.00 0.00 78 1027.4
20181022231007 17 90 4.8 4.8 0.00 0.00 0.00 78 1027.4
20181022230507 17 70 4.8 4.8 0.00 0.00 0.00 78 1029.4
20181022230012 17 29 4.8 4.8 0.00 0.00 0.00 78 1029.4
20181022225507 17 333 3.2 4.8 0.00 0.00 0.00 78 1029.4
20181022225007 17 284 1.6 3.2 0.00 0.00 0.00 78 1029.4
20181022224506 17 22 1.6 3.2 0.00 0.00 0.00 78 1029.4
20181022224007 17 353 3.2 3.2 0.00 0.00 0.00 78 1029.4
20181022223506 17 314 1.6 3.2 0.00 0.00 0.00 78 1029.4
20181022223007 17 314 1.6 1.6 0.00 0.00 0.00 78 1029.4
20181022222507 17 314 0.0 1.6 0.00 0.00 0.00 78 1029.4
20181022222007 17 314 0.0 1.6 0.00 0.00 0.00 78 1029.4
20181022221507 17 314 1.6 3.2 0.00 0.00 0.00 78 1029.4
20181022221007 17 314 3.2 3.2 0.00 0.00 0.00 78 1029.4
20181022220507 17 314 3.2 3.2 0.00 0.00 0.00 78 1029.4
20181022220008 17 314 3.2 4.8 0.00 0.00 0.00 78 1029.4
20181022215507 17 314 3.2 4.8 0.00 0.00 0.00 78 1029.4
20181022215007 17 310 3.2 4.8 0.00 0.00 0.00 77 1029.4
20181022214507 17 291 1.6 3.2 0.00 0.00 0.00 77 1029.4
20181022214007 17 297 1.6 3.2 0.00 0.00 0.00 77 1029.4
20181022213507 17 325 3.2 4.8 0.00 0.00 0.00 77 1029.4
20181022213007 17 354 3.2 4.8 0.00 0.00 0.00 77 1029.4
20181022212507 17 11 4.8 6.4 0.00 0.00 0.00 77 1029.4
20181022212007 17 5 4.8 6.4 0.00 0.00 0.00 77 1029.4
20181022211507 17 2 4.8 6.4 0.00 0.00 0.00 77 1029.4
20181022211007 17 350 4.8 6.4 0.00 0.00 0.00 77 1029.4
20181022210507 17 346 4.8 4.8 0.00 0.00 0.00 77 1029.4
20181022210007 18 358 4.8 4.8 0.00 0.00 0.00 77 1029.4
20181022205506 18 17 4.8 4.8 0.00 0.00 0.00 77 1029.4
20181022205007 18 22 4.8 4.8 0.00 0.00 0.00 77 1029.4
20181022204507 18 348 4.8 4.8 0.00 0.00 0.00 77 1029.4
20181022204007 18 325 3.2 4.8 0.00 0.00 0.00 77 1029.4
20181022203008 18 51 6.4 9.7 0.00 0.00 0.00 77 1029.4
20181022202508 18 51 8.0 9.7 0.00 0.00 0.00 78 1029.4
20181022202008 18 48 8.0 9.7 0.00 0.00 0.00 78 1029.4
20181022201507 18 45 8.0 9.7 0.00 0.00 0.00 78 1029.4
20181022201007 18 40 4.8 9.7 0.00 0.00 0.00 78 1029.4
20181022200507 17 34 3.2 6.4 0.00 0.00 0.00 78 1029.4
20181022200008 17 313 1.6 3.2 0.00 0.00 0.00 78 1030.4
20181022195008 18 26 3.2 6.4 0.00 0.00 0.00 78 1030.4
20181022194508 18 33 6.4 8.0 0.00 0.00 0.00 78 1029.4
20181022194007 17 26 6.4 8.0 0.00 0.00 0.00 79 1029.4
20181022193508 17 18 6.4 8.0 0.00 0.00 0.00 79 1029.4
20181022193007 17 23 6.4 9.7 0.00 0.00 0.00 79 1029.4
20181022192507 17 22 8.0 9.7 0.00 0.00 0.00 79 1029.4
20181022192008 17 16 8.0 9.7 0.00 0.00 0.00 79 1029.4
20181022191508 17 10 8.0 9.7 0.00 0.00 0.00 79 1026.4
20181022191008 17 8 8.0 9.7 0.00 0.00 0.00 79 1026.4
20181022190508 17 5 8.0 9.7 0.00 0.00 0.00 79 1029.4
20181022190007 17 1 8.0 9.7 0.00 0.00 0.00 79 1029.4
20181022185508 17 3 6.4 8.0 0.00 0.00 0.00 79 1029.4
20181022185007 17 359 6.4 8.0 0.00 0.00 0.00 78 1029.4
20181022184508 18 336 4.8 6.4 0.00 0.00 0.00 78 1028.4
20181022184008 18 316 4.8 6.4 0.00 0.00 0.00 78 1028.4
20181022183507 18 323 4.8 4.8 0.00 0.00 0.00 78 1028.4
20181022183008 18 340 4.8 4.8 0.00 0.00 0.00 78 1028.4
20181022182508 18 2 4.8 4.8 0.00 0.00 0.00 77 1028.4
20181022182009 18 4 4.8 6.4 0.00 0.00 0.00 77 1028.4
20181022181507 18 356 6.4 6.4 0.00 0.00 0.00 77 1028.4
20181022181007 18 5 6.4 9.7 0.00 0.00 0.00 77 1028.4
20181022180509 18 8 8.0 9.7 0.00 0.00 0.00 77 1028.4
20181022173509 19 353 8.0 12.9 0.00 0.00 0.00 76 1028.4
20181022173008 19 350 8.0 9.7 0.00 0.00 0.00 75 1028.4
20181022172008 19 334 8.0 9.7 0.00 0.00 0.00 74 1028.4
20181022171507 20 345 8.0 9.7 0.00 0.00 0.00 74 1028.4
20181022171008 20 355 6.4 9.7 0.00 0.00 0.00 73 1028.4
20181022170507 20 346 8.0 14.5 0.00 0.00 0.00 73 1028.4
20181022170008 20 349 9.7 14.5 0.00 0.00 0.00 73 1028.4
20181022165507 20 355 8.0 16.1 0.00 0.00 0.00 72 1028.4
20181022165009 20 347 9.7 16.1 0.00 0.00 0.00 72 1028.4
20181022164507 20 351 11.3 16.1 0.00 0.00 0.00 71 1028.4
20181022164008 20 337 11.3 16.1 0.00 0.00 0.00 70 1028.4
20181022163507 20 323 11.3 14.5 0.00 0.00 0.00 69 1028.4
20181022163008 20 330 11.3 14.5 0.00 0.00 0.00 69 1028.4
20181022162507 21 341 12.9 16.1 0.00 0.00 0.00 69 1028.4
20181022162009 21 339 11.3 16.1 0.00 0.00 0.00 69 1028.4
20181022161508 21 342 9.7 14.5 0.00 0.00 0.00 69 1028.4
20181022161008 21 347 9.7 14.5 0.00 0.00 0.00 68 1028.4
20181022160508 21 346 9.7 14.5 0.00 0.00 0.00 68 1028.4
20181022160008 21 355 12.9 17.7 0.00 0.00 0.00 67 1028.4
20181022155508 21 5 14.5 17.7 0.00 0.00 0.00 67 1028.4
20181022155005 21 355 14.5 17.7 0.00 0.00 0.00 66 1028.4
20181022154506 22 333 14.5 17.7 0.00 0.00 0.00 66 1028.4
20181022153505 22 331 14.5 16.1 0.00 0.00 0.00 66 1028.4
20181022153007 22 341 14.5 17.7 0.00 0.00 0.00 66 1028.4
20181022152505 22 341 12.9 17.7 0.00 0.00 0.00 66 1028.4
20181022152006 22 351 11.3 16.1 0.00 0.00 0.00 66 1028.4
20181022151506 22 350 11.3 14.5 0.00 0.00 0.00 66 1028.4
20181022151005 22 333 11.3 14.5 0.00 0.00 0.00 65 1028.4
20181022150506 22 331 11.3 14.5 0.00 0.00 0.00 65 1028.4
20181022150006 22 322 11.3 14.5 0.00 0.00 0.00 65 1028.4
20181022145505 22 329 9.7 14.5 0.00 0.00 0.00 65 1028.4
20181022145006 22 330 11.3 14.5 0.00 0.00 0.00 65 1028.4
20181022144506 22 335 11.3 14.5 0.00 0.00 0.00 64 1028.4
20181022144006 22 331 12.9 17.7 0.00 0.00 0.00 64 1028.4
20181022143506 22 336 12.9 17.7 0.00 0.00 0.00 64 1028.4
20181022143005 22 353 12.9 17.7 0.00 0.00 0.00 64 1028.4
20181022142506 22 359 12.9 19.3 0.00 0.00 0.00 64 1028.4
20181022142005 23 343 12.9 19.3 0.00 0.00 0.00 64 1028.4
20181022141506 23 326 11.3 16.1 0.00 0.00 0.00 64 1028.4
20181022141005 23 332 12.9 17.7 0.00 0.00 0.00 64 1028.4
20181022140505 23 323 12.9 17.7 0.00 0.00 0.00 64 1028.4
20181022140006 23 321 12.9 16.1 0.00 0.00 0.00 65 1029.4
20181022135505 23 325 12.9 17.7 0.00 0.00 0.00 65 1029.4
20181022135006 23 320 11.3 17.7 0.00 0.00 0.00 65 1029.4
20181022134505 23 328 11.3 17.7 0.00 0.00 0.00 65 1029.4
20181022134005 23 340 11.3 17.7 0.00 0.00 0.00 64 1029.4
20181022133505 23 333 11.3 16.1 0.00 0.00 0.00 64 1029.4
20181022133006 23 324 11.3 16.1 0.00 0.00 0.00 64 1028.4
20181022132505 23 340 12.9 16.1 0.00 0.00 0.00 64 1028.4